| time (UTC) | temp F | wind direction | speed MPH | gust MPH | rain 1hr in | rain 24hr in | rain mn in | humidity % | barometer mb |
| 20260503220014 | 57 | 136 | 1.0 | 4.0 | 0.00 | 0.51 | 0.00 | 96 | 1011.4 |
| 20260503215533 | 57 | 136 | 2.0 | 4.0 | 0.00 | 0.63 | 0.10 | 95 | 1011.4 |
| 20260503215015 | 57 | 136 | 1.0 | 3.0 | 0.00 | 0.63 | 0.10 | 95 | 1011.4 |
| 20260503214520 | 57 | 136 | 2.0 | 3.0 | 0.00 | 0.63 | 0.10 | 95 | 1011.3 |
| 20260503214041 | 57 | 136 | 1.0 | 3.0 | 0.00 | 0.63 | 0.10 | 95 | 1011.3 |
| 20260503213539 | 57 | 136 | 1.0 | 3.0 | 0.00 | 0.63 | 0.10 | 95 | 1011.2 |
| 20260503213042 | 57 | 136 | 1.0 | 3.0 | 0.00 | 0.63 | 0.10 | 95 | 1011.3 |
| 20260503212550 | 57 | 136 | 2.0 | 4.0 | 0.00 | 0.63 | 0.10 | 95 | 1011.3 |
| 20260503212012 | 57 | 136 | 2.0 | 3.0 | 0.00 | 0.63 | 0.10 | 95 | 1011.4 |
| 20260503211511 | 57 | 136 | 2.0 | 4.0 | 0.00 | 0.63 | 0.10 | 95 | 1011.4 |
| 20260503211014 | 58 | 134 | 1.0 | 5.0 | 0.00 | 0.63 | 0.10 | 95 | 1011.3 |
| 20260503210517 | 58 | 188 | 2.0 | 5.0 | 0.00 | 0.63 | 0.10 | 94 | 1011.3 |
| 20260503210014 | 58 | 136 | 1.0 | 4.0 | 0.00 | 0.63 | 0.10 | 94 | 1011.3 |
| 20260503205513 | 58 | 138 | 3.0 | 6.0 | 0.00 | 0.87 | 0.10 | 94 | 1011.3 |
| 20260503205017 | 58 | 175 | 2.0 | 6.0 | 0.00 | 0.87 | 0.10 | 94 | 1011.4 |
| 20260503204520 | 58 | 153 | 1.0 | 5.0 | 0.00 | 0.87 | 0.10 | 94 | 1011.4 |
| 20260503204025 | 58 | 165 | 2.0 | 5.0 | 0.00 | 0.87 | 0.10 | 94 | 1011.3 |
| 20260503203544 | 58 | 123 | 2.0 | 6.0 | 0.00 | 0.87 | 0.10 | 94 | 1011.3 |
| 20260503203027 | 58 | 144 | 2.0 | 7.0 | 0.00 | 0.87 | 0.10 | 94 | 1011.4 |
| 20260503202530 | 58 | 161 | 3.0 | 7.0 | 0.00 | 0.87 | 0.10 | 94 | 1011.4 |
| 20260503202033 | 58 | 140 | 2.0 | 5.0 | 0.00 | 0.87 | 0.10 | 94 | 1011.5 |
| 20260503201516 | 58 | 139 | 2.0 | 5.0 | 0.00 | 0.87 | 0.10 | 94 | 1011.3 |
| 20260503201014 | 58 | 113 | 2.0 | 7.0 | 0.00 | 0.87 | 0.10 | 94 | 1011.3 |
| 20260503200517 | 58 | 166 | 2.0 | 7.0 | 0.00 | 0.87 | 0.10 | 93 | 1011.2 |
| 20260503200014 | 59 | 138 | 1.0 | 5.0 | 0.00 | 0.87 | 0.10 | 93 | 1011.1 |
| 20260503195518 | 59 | 150 | 2.0 | 5.0 | 0.00 | 0.87 | 0.10 | 93 | 1011.0 |
| 20260503195019 | 59 | 121 | 3.0 | 5.0 | 0.00 | 0.87 | 0.10 | 93 | 1011.0 |
| 20260503194522 | 59 | 188 | 2.0 | 5.0 | 0.00 | 0.87 | 0.10 | 93 | 1010.9 |
| 20260503194025 | 59 | 161 | 2.0 | 6.0 | 0.00 | 0.87 | 0.10 | 92 | 1010.8 |
| 20260503193530 | 59 | 161 | 3.0 | 6.0 | 0.00 | 0.87 | 0.10 | 92 | 1010.8 |
| 20260503193013 | 59 | 159 | 3.0 | 5.0 | 0.00 | 0.87 | 0.10 | 92 | 1010.8 |
| 20260503192514 | 60 | 153 | 2.0 | 5.0 | 0.00 | 0.87 | 0.10 | 92 | 1010.8 |
| 20260503192016 | 59 | 121 | 1.0 | 5.0 | 0.00 | 0.87 | 0.10 | 92 | 1010.7 |
| 20260503191517 | 59 | 113 | 2.0 | 5.0 | 0.00 | 0.87 | 0.10 | 92 | 1010.6 |
| 20260503191020 | 59 | 167 | 2.0 | 5.0 | 0.00 | 0.87 | 0.10 | 92 | 1010.5 |
| 20260503190520 | 60 | 134 | 1.0 | 5.0 | 0.00 | 0.87 | 0.10 | 92 | 1010.4 |
| 20260503190016 | 60 | 119 | 2.0 | 5.0 | 0.00 | 0.87 | 0.10 | 92 | 1010.3 |
| 20260503185540 | 60 | 124 | 2.0 | 7.0 | 0.00 | 0.87 | 0.10 | 91 | 1010.3 |
| 20260503185023 | 60 | 122 | 3.0 | 8.0 | 0.00 | 0.87 | 0.10 | 93 | 1010.3 |
| 20260503184524 | 61 | 128 | 3.0 | 8.0 | 0.00 | 0.87 | 0.10 | 91 | 1010.3 |
| 20260503184052 | 61 | 100 | 2.0 | 6.0 | 0.00 | 0.87 | 0.10 | 90 | 1010.3 |
| 20260503183534 | 60 | 155 | 5.0 | 7.0 | 0.00 | 0.87 | 0.10 | 90 | 1010.3 |
| 20260503183017 | 61 | 133 | 3.0 | 6.0 | 0.00 | 0.87 | 0.10 | 90 | 1010.3 |
| 20260503182517 | 61 | 131 | 3.0 | 8.0 | 0.00 | 0.87 | 0.10 | 90 | 1010.2 |
| 20260503182019 | 61 | 177 | 4.0 | 9.0 | 0.00 | 0.87 | 0.10 | 90 | 1010.2 |
| 20260503181545 | 61 | 208 | 4.0 | 7.0 | 0.00 | 0.87 | 0.10 | 91 | 1010.1 |
| 20260503181028 | 61 | 128 | 4.0 | 7.0 | 0.00 | 0.87 | 0.10 | 91 | 1010.0 |
| 20260503180553 | 61 | 189 | 5.0 | 7.0 | 0.00 | 0.87 | 0.10 | 91 | 1010.0 |
| 20260503180031 | 61 | 186 | 3.0 | 7.0 | 0.00 | 0.87 | 0.10 | 91 | 1009.9 |
| 20260503175514 | 61 | 180 | 3.0 | 6.0 | 0.00 | 0.87 | 0.10 | 91 | 1009.9 |
| 20260503175018 | 61 | 142 | 3.0 | 6.0 | 0.00 | 0.87 | 0.10 | 91 | 1009.8 |
| 20260503174518 | 61 | 205 | 2.0 | 7.0 | 0.00 | 0.87 | 0.10 | 90 | 1009.7 |
| 20260503174022 | 61 | 174 | 3.0 | 7.0 | 0.00 | 0.87 | 0.10 | 90 | 1009.7 |
| 20260503173518 | 61 | 144 | 3.0 | 9.0 | 0.00 | 0.87 | 0.10 | 90 | 1009.7 |
| 20260503173022 | 62 | 180 | 4.0 | 9.0 | 0.00 | 0.87 | 0.10 | 90 | 1009.8 |
| 20260503172526 | 62 | 193 | 5.0 | 9.0 | 0.00 | 0.87 | 0.10 | 90 | 1009.9 |
| 20260503172026 | 62 | 182 | 2.0 | 5.0 | 0.00 | 0.87 | 0.10 | 90 | 1009.9 |
| 20260503171511 | 62 | 213 | 3.0 | 6.0 | 0.00 | 0.87 | 0.10 | 90 | 1009.9 |
| 20260503171014 | 62 | 212 | 3.0 | 6.0 | 0.00 | 0.87 | 0.10 | 89 | 1009.8 |
| 20260503170518 | 62 | 140 | 2.0 | 5.0 | 0.00 | 0.87 | 0.10 | 90 | 1009.7 |
| 20260503150623 | 64 | 198 | 5.0 | 9.0 | 0.00 | 0.87 | 0.10 | 79 | 1009.8 |
| 20260503150125 | 64 | 207 | 5.0 | 10.0 | 0.00 | 0.87 | 0.10 | 79 | 1009.8 |
| 20260503140112 | 64 | 196 | 6.0 | 8.0 | 0.00 | 0.87 | 0.10 | 82 | 1010.2 |
| 20260503131112 | 61 | 233 | 4.0 | 8.0 | 0.00 | 0.87 | 0.10 | 87 | 1010.4 |
| 20260503130619 | 61 | 194 | 3.0 | 10.0 | 0.00 | 0.87 | 0.10 | 86 | 1010.4 |
| 20260503130134 | 61 | 171 | 4.0 | 10.0 | 0.00 | 0.87 | 0.10 | 87 | 1010.5 |
| 20260503120119 | 61 | 183 | 2.0 | 6.0 | 0.04 | 0.87 | 0.10 | 92 | 1010.6 |
| 20260503110617 | 59 | 178 | 5.0 | 10.0 | 0.04 | 0.83 | 0.09 | 94 | 1010.8 |
| 20260503110144 | 59 | 171 | 7.0 | 10.0 | 0.04 | 0.83 | 0.09 | 94 | 1010.8 |
| 20260503100143 | 59 | 197 | 2.0 | 5.0 | 0.12 | 0.79 | 0.09 | 93 | 1010.8 |
| 20260503090114 | 59 | 196 | 4.0 | 9.0 | 0.04 | 0.67 | 0.06 | 92 | 1010.8 |
| 20260503081611 | 60 | 238 | 6.0 | 11.0 | 0.00 | 0.63 | 0.06 | 92 | 1010.4 |
| 20260503081137 | 60 | 169 | 6.0 | 11.0 | 0.00 | 0.63 | 0.06 | 92 | 1010.5 |
| 20260503080623 | 60 | 301 | 5.0 | 15.0 | 0.00 | 0.63 | 0.06 | 92 | 1010.4 |
| 20260503080120 | 60 | 196 | 7.0 | 16.0 | 0.00 | 0.63 | 0.06 | 92 | 1010.4 |
| 20260503072623 | 60 | 142 | 3.0 | 11.0 | 0.00 | 0.63 | 0.06 | 94 | 1010.3 |
| 20260503072109 | 60 | 133 | 5.0 | 11.0 | 0.00 | 0.63 | 0.06 | 94 | 1010.3 |
| 20260503071618 | 60 | 164 | 4.0 | 10.0 | 0.00 | 0.63 | 0.06 | 94 | 1010.2 |
| 20260503071123 | 60 | 131 | 5.0 | 10.0 | 0.04 | 0.63 | 0.06 | 94 | 1010.1 |
| 20260503070611 | 60 | 153 | 4.0 | 10.0 | 0.04 | 0.63 | 0.06 | 94 | 1010.0 |
| 20260503070110 | 60 | 184 | 3.0 | 10.0 | 0.04 | 0.63 | 0.06 | 94 | 1010.1 |
| 20260503060109 | 59 | 153 | 1.0 | 3.0 | 0.00 | 0.79 | 0.05 | 95 | 1010.0 |
| 20260503054611 | 59 | 114 | 1.0 | 6.0 | 0.00 | 0.91 | 0.05 | 95 | 1009.9 |
| 20260503054109 | 59 | 109 | 1.0 | 3.0 | 0.00 | 0.91 | 0.05 | 95 | 1010.0 |
| 20260503053618 | 59 | 129 | 1.0 | 6.0 | 0.00 | 0.91 | 0.05 | 95 | 1010.0 |
| 20260503053125 | 59 | 101 | 1.0 | 6.0 | 0.00 | 0.91 | 0.05 | 95 | 1010.0 |
| 20260503052613 | 59 | 113 | 0.0 | 8.0 | 0.00 | 0.91 | 0.05 | 95 | 1010.1 |
| 20260503052115 | 59 | 96 | 3.0 | 8.0 | 0.00 | 0.91 | 0.05 | 95 | 1010.0 |
| 20260503051625 | 59 | 125 | 2.0 | 6.0 | 0.00 | 0.91 | 0.05 | 95 | 1010.0 |
| 20260503051111 | 59 | 122 | 2.0 | 5.0 | 0.00 | 0.91 | 0.05 | 95 | 1010.0 |
| 20260503050620 | 59 | 131 | 2.0 | 9.0 | 0.00 | 0.91 | 0.05 | 95 | 1010.0 |
| 20260503050123 | 59 | 121 | 3.0 | 9.0 | 0.00 | 0.91 | 0.05 | 95 | 1010.1 |
| 20260503045606 | 59 | 142 | 2.0 | 5.0 | 0.00 | 0.91 | 0.05 | 95 | 1010.1 |
| 20260503045109 | 58 | 133 | 1.0 | 4.0 | 0.00 | 0.91 | 0.05 | 95 | 1010.1 |
| 20260503044616 | 58 | 102 | 1.0 | 5.0 | 0.00 | 0.91 | 0.05 | 95 | 1010.1 |
| 20260503044125 | 58 | 123 | 1.0 | 5.0 | 0.00 | 0.91 | 0.05 | 95 | 1010.3 |
| 20260503043615 | 58 | 140 | 1.0 | 4.0 | 0.00 | 0.91 | 0.05 | 95 | 1010.4 |
| 20260503043109 | 58 | 109 | 1.0 | 7.0 | 0.00 | 0.91 | 0.05 | 95 | 1010.4 |
| 20260503042614 | 58 | 128 | 2.0 | 5.0 | 0.00 | 0.91 | 0.05 | 94 | 1010.3 |
| 20260503042145 | 58 | 123 | 1.0 | 5.0 | 0.00 | 0.91 | 0.05 | 94 | 1010.3 |
| 20260503041610 | 58 | 103 | 2.0 | 7.0 | 0.00 | 0.91 | 0.05 | 94 | 1010.4 |
| 20260503041130 | 58 | 139 | 2.0 | 7.0 | 0.00 | 0.91 | 0.05 | 94 | 1010.4 |
| 20260503040618 | 58 | 121 | 1.0 | 4.0 | 0.00 | 0.91 | 0.05 | 94 | 1010.3 |
| 20260503040120 | 58 | 117 | 1.0 | 5.0 | 0.00 | 0.91 | 0.05 | 94 | 1010.3 |
| 20260503035609 | 58 | 123 | 1.0 | 5.0 | 0.00 | 0.91 | 0.05 | 94 | 1010.4 |
| 20260503035114 | 58 | 142 | 1.0 | 7.0 | 0.00 | 0.91 | 0.05 | 94 | 1010.4 |
| 20260503034639 | 58 | 126 | 1.0 | 7.0 | 0.00 | 0.91 | 0.05 | 94 | 1010.4 |
| 20260503034106 | 58 | 142 | 1.0 | 5.0 | 0.00 | 0.91 | 0.05 | 94 | 1010.4 |
| 20260503033615 | 58 | 98 | 1.0 | 4.0 | 0.00 | 0.91 | 0.05 | 94 | 1010.4 |
| 20260503033125 | 58 | 98 | 1.0 | 4.0 | 0.08 | 0.91 | 0.05 | 94 | 1010.4 |
| 20260503032610 | 58 | 115 | 1.0 | 4.0 | 0.08 | 0.91 | 0.05 | 94 | 1010.5 |
| 20260503032118 | 58 | 107 | 1.0 | 6.0 | 0.12 | 0.91 | 0.05 | 94 | 1010.5 |
| 20260503031607 | 58 | 113 | 2.0 | 6.0 | 0.16 | 0.91 | 0.05 | 93 | 1010.5 |
| 20260503031116 | 58 | 87 | 2.0 | 6.0 | 0.16 | 0.91 | 0.05 | 93 | 1010.5 |
| 20260503030624 | 58 | 105 | 1.0 | 4.0 | 0.16 | 0.91 | 0.05 | 94 | 1010.5 |
| 20260503030109 | 59 | 106 | 1.0 | 7.0 | 0.16 | 0.91 | 0.05 | 93 | 1010.6 |
| 20260503025617 | 59 | 103 | 2.0 | 7.0 | 0.16 | 0.91 | 0.05 | 93 | 1010.7 |
| 20260503025125 | 59 | 134 | 2.0 | 6.0 | 0.16 | 0.91 | 0.05 | 93 | 1010.8 |
| 20260503024614 | 59 | 118 | 2.0 | 7.0 | 0.16 | 0.91 | 0.05 | 93 | 1010.8 |
| 20260503024121 | 59 | 126 | 2.0 | 7.0 | 0.16 | 0.91 | 0.05 | 93 | 1010.9 |
| 20260503023626 | 59 | 132 | 2.0 | 5.0 | 0.16 | 0.91 | 0.05 | 93 | 1011.1 |
| 20260503023111 | 59 | 89 | 2.0 | 8.0 | 0.08 | 0.83 | 0.03 | 93 | 1011.2 |
| 20260503022637 | 59 | 122 | 2.0 | 10.0 | 0.08 | 0.83 | 0.03 | 93 | 1011.3 |
| 20260503022124 | 59 | 92 | 3.0 | 10.0 | 0.04 | 0.79 | 0.02 | 93 | 1011.4 |
| 20260503021628 | 59 | 151 | 4.0 | 9.0 | 0.00 | 0.75 | 0.02 | 93 | 1011.6 |
| 20260503021114 | 59 | 105 | 3.0 | 8.0 | 0.00 | 0.75 | 0.02 | 93 | 1011.5 |
| 20260503020622 | 59 | 103 | 2.0 | 9.0 | 0.00 | 0.75 | 0.02 | 93 | 1011.5 |
| 20260503020105 | 59 | 118 | 3.0 | 9.0 | 0.00 | 0.75 | 0.02 | 93 | 1011.6 |
| 20260503015629 | 59 | 160 | 3.0 | 8.0 | 0.00 | 0.75 | 0.02 | 93 | 1011.7 |
| 20260503015114 | 59 | 116 | 2.0 | 7.0 | 0.00 | 0.75 | 0.02 | 93 | 1011.5 |
| 20260503014623 | 59 | 126 | 1.0 | 6.0 | 0.00 | 0.75 | 0.02 | 93 | 1011.5 |
| 20260503014110 | 59 | 140 | 1.0 | 5.0 | 0.00 | 0.75 | 0.02 | 93 | 1011.6 |
| 20260503013613 | 59 | 130 | 2.0 | 5.0 | 0.00 | 0.75 | 0.02 | 93 | 1011.6 |
| 20260503013117 | 59 | 139 | 1.0 | 6.0 | 0.00 | 0.75 | 0.02 | 93 | 1011.4 |
| 20260503012606 | 59 | 101 | 2.0 | 6.0 | 0.00 | 0.75 | 0.02 | 93 | 1011.6 |
| 20260503012107 | 59 | 163 | 1.0 | 6.0 | 0.00 | 0.75 | 0.02 | 93 | 1011.7 |
| 20260503011613 | 58 | 96 | 2.0 | 6.0 | 0.00 | 0.75 | 0.02 | 93 | 1011.6 |
| 20260503011131 | 58 | 104 | 1.0 | 4.0 | 0.00 | 0.75 | 0.02 | 93 | 1011.6 |
| 20260503010643 | 58 | 85 | 1.0 | 4.0 | 0.00 | 0.75 | 0.02 | 93 | 1011.5 |
| 20260503010105 | 58 | 119 | 1.0 | 4.0 | 0.00 | 0.75 | 0.02 | 93 | 1011.7 |
| 20260503005614 | 58 | 96 | 2.0 | 6.0 | 0.00 | 0.75 | 0.02 | 93 | 1011.7 |
| 20260503005114 | 58 | 112 | 1.0 | 6.0 | 0.00 | 0.75 | 0.02 | 93 | 1011.6 |
| 20260503004605 | 58 | 131 | 1.0 | 6.0 | 0.00 | 0.75 | 0.02 | 93 | 1011.5 |
| 20260503004131 | 58 | 83 | 1.0 | 3.0 | 0.00 | 0.75 | 0.02 | 93 | 1011.7 |
| 20260503003619 | 58 | 122 | 1.0 | 3.0 | 0.00 | 0.75 | 0.02 | 93 | 1011.7 |
| 20260503003120 | 58 | 115 | 2.0 | 4.0 | 0.00 | 0.75 | 0.02 | 93 | 1011.8 |
| 20260503002610 | 58 | 103 | 2.0 | 6.0 | 0.00 | 0.75 | 0.02 | 92 | 1011.8 |
| 20260503002115 | 58 | 131 | 2.0 | 7.0 | 0.00 | 0.75 | 0.02 | 92 | 1011.8 |
| 20260503001624 | 58 | 124 | 1.0 | 7.0 | 0.08 | 0.75 | 0.02 | 92 | 1011.9 |
| 20260503001132 | 58 | 102 | 1.0 | 4.0 | 0.08 | 0.75 | 0.02 | 92 | 1011.9 |
| 20260503000615 | 58 | 117 | 2.0 | 4.0 | 0.08 | 0.75 | 0.02 | 92 | 1011.9 |
| 20260503000115 | 58 | 126 | 1.0 | 6.0 | 0.08 | 0.75 | 0.02 | 92 | 1012.0 |
| 20260502235623 | 58 | 126 | 1.0 | 6.0 | 0.08 | 0.75 | 0.02 | 91 | 1012.0 |
| 20260502235130 | 58 | 111 | 1.0 | 8.0 | 0.08 | 0.75 | 0.02 | 91 | 1012.0 |
| 20260502234614 | 58 | 84 | 2.0 | 6.0 | 0.08 | 0.75 | 0.02 | 91 | 1012.0 |
| 20260502234122 | 58 | 103 | 1.0 | 5.0 | 0.08 | 0.75 | 0.02 | 91 | 1012.0 |
| 20260502233610 | 58 | 84 | 2.0 | 6.0 | 0.08 | 0.75 | 0.02 | 91 | 1012.0 |
| 20260502233114 | 58 | 85 | 3.0 | 6.0 | 0.08 | 0.75 | 0.02 | 91 | 1012.0 |
| 20260502232619 | 58 | 102 | 2.0 | 6.0 | 0.08 | 0.75 | 0.02 | 91 | 1012.1 |
| 20260502232105 | 59 | 123 | 1.0 | 6.0 | 0.04 | 0.71 | 0.01 | 91 | 1012.2 |
| 20260502231612 | 59 | 116 | 2.0 | 8.0 | 0.00 | 0.67 | 0.00 | 91 | 1012.2 |
| 20260502231115 | 59 | 110 | 2.0 | 8.0 | 0.00 | 0.67 | 0.00 | 90 | 1012.4 |
| 20260502230622 | 59 | 126 | 3.0 | 7.0 | 0.00 | 0.67 | 0.00 | 90 | 1012.4 |
| 20260502230105 | 59 | 109 | 2.0 | 7.0 | 0.00 | 0.67 | 0.00 | 90 | 1012.4 |
| 20260502225609 | 59 | 126 | 2.0 | 6.0 | 0.00 | 0.67 | 0.00 | 90 | 1012.4 |
| 20260502225107 | 59 | 107 | 1.0 | 6.0 | 0.00 | 0.67 | 0.00 | 90 | 1012.4 |
| 20260502224616 | 59 | 113 | 2.0 | 7.0 | 0.00 | 0.67 | 0.00 | 90 | 1012.5 |
| 20260502224123 | 59 | 222 | 1.0 | 6.0 | 0.00 | 0.67 | 0.00 | 90 | 1012.5 |
| 20260502223611 | 59 | 64 | 1.0 | 7.0 | 0.00 | 0.67 | 0.00 | 90 | 1012.5 |
| 20260502223108 | 59 | 84 | 2.0 | 5.0 | 0.00 | 0.67 | 0.00 | 89 | 1012.5 |
| 20260502222616 | 59 | 110 | 1.0 | 5.0 | 0.00 | 0.67 | 0.00 | 89 | 1012.5 |
| 20260502222106 | 59 | 89 | 2.0 | 6.0 | 0.00 | 0.67 | 0.00 | 89 | 1012.5 |
| 20260502221613 | 59 | 89 | 2.0 | 8.0 | 0.04 | 0.67 | 0.00 | 89 | 1012.6 |
| 20260502221110 | 59 | 103 | 1.0 | 8.0 | 0.04 | 0.67 | 0.00 | 89 | 1012.5 |
| 20260502220619 | 59 | 98 | 2.0 | 7.0 | 0.08 | 0.67 | 0.00 | 88 | 1012.6 |